This is the latest recevied weather packets stored in our database for station/object K5NWZ. If no packets are shown the sender has not sent any weather packets the latest 10 day(s).
| Time | Temp. | Humidity | Pressure | Rain* | Wind** | Luminosity | Snow |
|---|---|---|---|---|---|---|---|
| 1777536171 | 8.33° C | 52% | 1029.5 hPa | 0 mm | - | 0 W/m² | - |
| 1777535867 | 8.89° C | 50% | 1029.4 hPa | 0 mm | - | 0 W/m² | - |
| 1777535564 | 8.89° C | 49% | 1029.3 hPa | 0 mm | - | 0 W/m² | - |
| 1777535260 | 8.89° C | 49% | 1029.1 hPa | 0 mm | - | 0 W/m² | - |
| 1777534958 | 8.33° C | 52% | 1029.1 hPa | 0 mm | - | 0 W/m² | - |
| 1777534654 | 8.33° C | 54% | 1029.4 hPa | 0 mm | - | 0 W/m² | - |
| 1777534352 | 7.78° C | 55% | 1029.4 hPa | 0 mm | - | 0 W/m² | - |
| 1777534050 | 7.78° C | 60% | 1029.1 hPa | 0 mm | - | 0 W/m² | - |
| 1777533746 | 7.78° C | 60% | 1029.3 hPa | 0 mm | - | 0 W/m² | - |
| 1777533442 | 7.78° C | 60% | 1029.6 hPa | 0 mm | - | 0 W/m² | - |
| 1777533138 | 7.78° C | 60% | 1029.5 hPa | 0 mm | - | 0 W/m² | - |
| 1777532836 | 7.78° C | 60% | 1029.4 hPa | 0 mm | - | 0 W/m² | - |
| 1777532531 | 7.78° C | 61% | 1029.5 hPa | 0 mm | - | 0 W/m² | - |
| 1777532229 | 7.78° C | 62% | 1029.8 hPa | 0 mm | - | 0 W/m² | - |
| 1777531925 | 7.78° C | 62% | 1029.7 hPa | 0 mm | - | 0 W/m² | - |
| 1777531621 | 7.78° C | 62% | 1029.7 hPa | 0 mm | - | 0 W/m² | - |
| 1777531319 | 7.78° C | 61% | 1029.7 hPa | 0 mm | - | 0 W/m² | - |
| 1777531016 | 7.78° C | 62% | 1029.6 hPa | 0 mm | - | 0 W/m² | - |
| 1777530713 | 7.78° C | 61% | 1029.8 hPa | 0 mm | - | 0 W/m² | - |
| 1777530411 | 7.78° C | 59% | 1029.7 hPa | 0 mm | - | 0 W/m² | - |
| 1777530106 | 8.33° C | 58% | 1029.5 hPa | 0 mm | - | 0 W/m² | - |
| 1777529804 | 8.33° C | 58% | 1029.7 hPa | 0 mm | - | 0 W/m² | - |
| 1777529500 | 8.33° C | 57% | 1029.5 hPa | 0 mm | - | 0 W/m² | - |
| 1777529198 | 8.33° C | 57% | 1029.5 hPa | 0 mm | - | 0 W/m² | - |
| 1777528893 | 8.33° C | 57% | 1029.6 hPa | 0 mm | - | 0 W/m² | - |
* Rain latest hour (hover to see other rain measurements)
** Current wind speed in m/s (hover to see current wind gust speed)